Miscellaneous Local Product
Issued by NWS Hastings, NE

Home | Current Version | Previous Version | Text Only | Print | Product List | Glossary Off
Versions: 1 2 3 4 5 6 7 8 9 10 11 12 13 14 15 16 17 18 19 20 21 22 23 24 25 26 27 28 29 30 31 32 33 34 35 36 37 38 39 40 41 42 43 44 45 46 47 48 49 50

000
AXUS43 KGID 150302
MISGRI

GID CWA HOURLY WEATHER ROUNDUP
NATIONAL WEATHER SERVICE HASTINGS NE
900 PM CST SAT JAN 14 2017

NOTE: "FAIR" INDICATES FEW OR NO CLOUDS BELOW 12,000 FEET WITH NO
SIGNIFICANT WEATHER AND/OR OBSTRUCTIONS TO VISIBILITY.

...SOUTH CENTRAL NEBRASKA...

CITY           SKY/WX    TMP DP  RH WIND       PRES   REMARKS
GRAND ISLAND   CLOUDY    30  20  66 CALM      30.40F
HASTINGS       CLOUDY    30  17  58 CALM      30.39F
KEARNEY        CLOUDY    30  19  64 CALM      30.37F
ORD            CLOUDY    14   9  80 CALM      30.38F
YORK           CLOUDY    32  18  55 CALM      30.42S
AURORA         CLOUDY    31  19  60 CALM      30.40S
LEXINGTON      CLOUDY    31  22  69 CALM      30.36F
HOLDREGE       CLOUDY    31  17  57 CALM      30.36F
HEBRON         CLOUDY    31  17  55 SE3       30.42S

...NEBRASKA PANHANDLE...

CITY           SKY/WX    TMP DP  RH WIND       PRES   REMARKS
CHADRON        CLOUDY    14  11  87 W5        30.27F WCI   6
ALLIANCE       CLEAR     23  16  74 CALM      30.27S
SCOTTSBLUFF    CLEAR     28  22  78 E9        30.27S WCI  19
SIDNEY         CLOUDY    25  18  74 S6        30.27F WCI  18

...WESTERN AND NORTH CENTRAL NEBRASKA...

CITY           SKY/WX    TMP DP  RH WIND       PRES   REMARKS
VALENTINE      CLEAR     25  15  66 CALM      30.33S
AINSWORTH      CLEAR     23  19  86 S7        30.34S WCI  15
ONEILL         CLOUDY    23  19  86 S5        30.38F WCI  17
BROKEN BOW     CLEAR     14  12  92 CALM      30.35F
IMPERIAL       CLOUDY    26  20  77 CALM      30.31F
NORTH PLATTE   CLOUDY    25  20  81 E6        30.34F WCI  18
MCCOOK         CLOUDY    31  19  61 E6        30.34F WCI  25

...EASTERN NEBRASKA...

CITY           SKY/WX    TMP DP  RH WIND       PRES   REMARKS
NORFOLK        CLOUDY    15  11  83 S6        30.41S WCI   6
SO SIOUX CITY  CLOUDY    19  13  77 CALM      30.45S
TEKAMAH        PTCLDY    20  15  81 W3        30.46S
COLUMBUS       CLOUDY    25  19  80 CALM      30.43F
ALBION         CLOUDY    14  11  88 CALM      30.41F
OMAHA EPPLEY   CLOUDY    29  15  56 CALM      30.46S
OFFUTT AFB     CLOUDY    28  22  77 CALM      30.46R
MILLARD        CLOUDY    31  17  57 CALM      30.46S
LINCOLN        CLOUDY    30  17  58 CALM      30.45F
NEBRASKA CITY  CLOUDY    29  15  55 CALM      30.45F
BEATRICE       MOCLDY    32  18  55 NE3       30.43F
FALLS CITY     CLOUDY    29  20  69 NE3       30.45F

...NORTHERN KANSAS...

CITY           SKY/WX    TMP DP  RH WIND       PRES   REMARKS
GOODLAND       CLOUDY    28  19  69 S7        30.28F WCI  21
HILL CITY      CLOUDY    31  19  61 SE6       30.37F WCI  25
NORTON         CLOUDY    30  16  55 E3        30.35F
PHILLIPSBURG   CLOUDY    32  19  59 E3        30.39F
SMITH CENTER   CLOUDY    30  18  59 E3        30.41R
HAYS           MIX PCPN  31  28  89 S6        30.40S WCI  25
RUSSELL        CLOUDY    30  25  81 S6        30.40S WCI  24
CONCORDIA      CLOUDY    31  15  52 CALM      30.41F
SALINA         LGT RAIN  32  19  58 SE5       30.44  WCI  27
TOPEKA         CLOUDY    32  21  64 SE3       30.46F



USA.gov is the U.S. government's official web portal to all federal, state and local government web resources and services.